[[{"header":{"parameterUnit":"m.s-1","parameterCategory":1,"la1":30.2992,"la2":30.254,"lo1":-89.0895,"lo2":-89.0443,"dy":0.0025,"dx":0.0025,"nx":19,"ny":19,"refTime":"2026-05-16T21:00:00:Z","depth":0,"parameterNumber":2,"parameterNumberName":"U-component_of_WINDS"},"data":[0,0,0,-4.7031,-4.7033,-4.7128,-4.7129,-4.7264,-4.7266,0,0,0,0,0,0,0,0,0,0,0,-4.7012,-4.7013,-4.7031,-4.7034,-4.7128,-4.7129,-4.7264,-4.7266,0,0,0,0,0,0,0,0,0,0,0,-4.7011,-4.7013,-4.7014,-4.7034,-4.7128,-4.7129,-4.7264,-4.7187,0,0,0,0,0,0,0,0,0,0,-4.7092,-4.7083,-4.7013,-4.7014,-4.7035,-4.7128,-4.7129,-4.7183,-4.7192,-4.7228,0,-4.7262,0,-4.7266,-4.7276,-4.7276,0,0,0,-4.7027,-4.7076,-4.7094,-4.7015,-4.7036,-4.7128,-4.7084,-4.7188,-4.7198,-4.7239,-4.7264,-4.7269,-4.7269,-4.7277,-4.7278,-4.7509,-4.751,0,0,-4.7021,-4.7034,-4.7087,-4.7101,-4.7088,-4.7081,-4.7087,-4.7194,-4.7221,-4.7265,-4.7272,-4.7271,-4.7278,-4.7279,-4.7507,-4.7509,0,0,0,-4.7011,-4.703,-4.7045,-4.7096,-4.7112,-4.7084,-4.709,-4.7216,-4.722,-4.7273,-4.7273,-4.7279,-4.728,-4.7506,-4.7508,-4.7587,0,0,0,-4.7007,-4.7024,-4.7043,-4.7051,-4.711,-4.7165,-4.7111,-4.7213,-4.7224,-4.7272,-4.7279,-4.7282,-4.7504,-4.7507,-4.7582,-4.7621,0,0,0,-4.7003,-4.7023,-4.704,-4.7052,-4.7093,-4.7163,-4.7173,-4.7215,-4.7225,-4.7276,-4.7282,-4.7503,-4.7506,-4.7577,-4.7613,-4.7684,0,0,0,-4.7001,-4.711,-4.7042,-4.7164,-4.7093,-4.7213,-4.7172,-4.7261,-4.7315,-4.7279,-4.7504,-4.7508,-4.7575,-4.7608,-4.7679,-4.7743,-4.7772,0,0,-4.7145,-4.7128,-4.7199,-4.7141,-4.7276,-4.7197,-4.7344,-4.7382,-4.7377,-4.7465,-4.747,-4.7584,-4.7613,-4.7683,-4.7936,-4.7959,0,0,0,-4.7248,-4.7299,-4.7332,-4.7385,-4.7418,-4.7449,-4.7463,-4.7478,-4.7552,-4.7425,-4.763,-4.7647,-4.7687,-4.7717,-4.7737,-4.777,-4.7523,-4.7523,-4.7523,-4.7467,-4.7455,-4.7571,-4.757,-4.7622,-4.7637,-4.7678,-4.77,-4.7672,-4.7721,-4.7745,-4.79,-4.7936,-4.7951,-4.7985,-4.7782,-4.7782,-4.7782,-4.7782,-4.7674,-4.7742,-4.7705,-4.7804,-4.779,-4.7873,-4.7893,-4.7871,-4.7946,-4.7881,-4.7916,-4.7842,-4.7976,-4.8006,-4.7788,-4.7787,-4.7787,-4.7786,-4.7786,-4.7812,-4.7843,-4.786,-4.7935,-4.7996,-4.7993,-4.8066,-4.8052,-4.804,-4.8075,-4.8098,-4.8096,-4.809,-4.8088,-4.8088,-4.8089,-4.8089,-4.809,-4.809,-4.7947,-4.7964,-4.8027,-4.8074,-4.8106,-4.8147,-4.8166,-4.8197,-4.8228,-4.8212,-4.8212,-4.8178,-4.7994,-4.7945,-4.8098,-4.8097,-4.8096,-4.8095,-4.8094,-4.8154,-4.8106,-4.8204,-4.8236,-4.8289,-4.8349,-4.8333,-4.8399,-4.8423,-4.846,-4.842,-4.8287,-4.8268,-4.8252,-4.8211,-4.8424,-4.8424,-4.8424,-4.8424,-4.8267,-4.8258,-4.8355,-4.8408,-4.8459,-4.8455,-4.8566,-4.8583,-4.8592,-4.8607,-4.8575,-4.8522,-4.8507,-4.8496,-4.8475,-4.8437,-4.8703,-4.8703,-4.8703,-4.8392,-4.8388,-4.8484,-4.8494,-4.8535,-4.8571,-4.8674,-4.8737,-4.8739,-4.8714,-4.8617,-4.8605,-4.8519,-4.8493,-4.846,-4.8428,-4.8358,0,0]},{"header":{"parameterUnit":"m.s-1","parameterCategory":1,"la1":30.2992,"la2":30.254,"lo1":-89.0895,"lo2":-89.0443,"dy":0.0025,"dx":0.0025,"nx":19,"ny":19,"refTime":"2026-05-16T21:00:00:Z","depth":0,"parameterNumber":3,"parameterNumberName":"V-component_of_WINDS"},"data":[0,0,0,4.1287,4.1288,4.1331,4.1331,4.1394,4.1395,0,0,0,0,0,0,0,0,0,0,0,4.1282,4.1282,4.1287,4.1288,4.1331,4.1331,4.1394,4.1395,0,0,0,0,0,0,0,0,0,0,0,4.1281,4.1282,4.1283,4.1288,4.1331,4.1331,4.1394,4.1358,0,0,0,0,0,0,0,0,0,0,4.1316,4.1318,4.1282,4.1283,4.1289,4.133,4.1331,4.1357,4.1361,4.138,0,4.14,0,4.1399,4.14,4.14,0,0,0,4.1283,4.1314,4.132,4.1283,4.1289,4.133,4.131,4.1359,4.1363,4.1385,4.1401,4.1403,4.14,4.1401,4.1401,4.1533,4.1534,0,0,4.128,4.1293,4.1316,4.1323,4.1318,4.1309,4.1311,4.1361,4.1378,4.1401,4.1404,4.1401,4.1401,4.1402,4.1533,4.1534,0,0,0,4.1277,4.1291,4.1295,4.1321,4.1328,4.131,4.1313,4.1376,4.1376,4.1405,4.1402,4.1402,4.1402,4.1532,4.1533,4.159,0,0,0,4.1276,4.129,4.1294,4.1302,4.1327,4.1353,4.1327,4.1373,4.1378,4.1401,4.1402,4.1403,4.1531,4.1532,4.1586,4.1615,0,0,0,4.1276,4.129,4.1298,4.1303,4.1322,4.1352,4.1354,4.1374,4.1377,4.14,4.1403,4.153,4.1532,4.1583,4.161,4.1655,0,0,0,4.128,4.1347,4.1299,4.1373,4.1321,4.1387,4.1354,4.1401,4.1429,4.1402,4.1531,4.1533,4.1582,4.1606,4.1651,4.1696,4.1715,0,0,4.1372,4.1359,4.1401,4.1359,4.1437,4.1379,4.1464,4.1476,4.1466,4.1511,4.1514,4.1588,4.1609,4.1654,4.1818,4.1834,0,0,0,4.1434,4.1465,4.1482,4.151,4.1521,4.1534,4.1532,4.1536,4.1574,4.1492,4.1615,4.1627,4.1653,4.1674,4.1687,4.1709,4.1543,4.1542,4.1542,4.1581,4.1566,4.1635,4.1625,4.1652,4.165,4.167,4.1675,4.1651,4.168,4.1694,4.1795,4.182,4.183,4.1853,4.1715,4.1715,4.1715,4.1715,4.1715,4.1756,4.1723,4.1779,4.1762,4.1807,4.1807,4.1789,4.1829,4.1783,4.1805,4.1759,4.1848,4.1867,4.172,4.1719,4.1718,4.1718,4.1718,4.1811,4.1828,4.1833,4.1872,4.1902,4.1889,4.1929,4.1912,4.1895,4.1917,4.193,4.1929,4.1927,4.1924,4.1924,4.1925,4.1925,4.1925,4.1926,4.1909,4.1913,4.195,4.1969,4.1984,4.2002,4.2,4.2015,4.2026,4.201,4.201,4.1984,4.1859,4.1829,4.1931,4.193,4.1929,4.1929,4.1928,4.2053,4.2017,4.2075,4.2091,4.2111,4.2143,4.212,4.2151,4.216,4.2181,4.2149,4.2059,4.2045,4.2034,4.2009,4.2152,4.2152,4.2152,4.2152,4.2135,4.2126,4.2181,4.2207,4.2231,4.2216,4.228,4.2279,4.2273,4.2277,4.2254,4.2218,4.2208,4.22,4.2185,4.2162,4.234,4.234,4.2341,4.2223,4.2215,4.2275,4.2269,4.2283,4.2296,4.2357,4.2388,4.2372,4.2348,4.2281,4.2273,4.2216,4.2198,4.2174,4.2152,4.2108,0,0]}]]